Regional Weather Roundup
Issued by NWS

Home | Current Version | Previous Version | Text Only | Print | Product List | Glossary Off
Versions: 1 2 3 4 5 6 7 8 9 10 11 12 13 14 15 16 17 18 19 20 21 22 23 24 25 26 27 28 29 30 31 32 33 34 35 36 37 38 39 40 41 42 43 44 45 46 47 48 49 50

000
ASUS43 KMPX 130410
RWRMN
WEATHER ROUNDUP FOR MINNESOTA
NATIONAL WEATHER SERVICE TWIN CITIES/CHANHASSEN MN
1000 PM CST TUE DEC 12 2017


NOTE: "FAIR" INDICATES FEW OR NO CLOUDS BELOW 12,000 FEET WITH NO
SIGNIFICANT WEATHER AND/OR OBSTRUCTIONS TO VISIBILITY. N/A MEANS
CURRENT SKY AND/OR WEATHER CONDITIONS ARE NOT AVAILABLE.

MNZ060>063-068>070-130500-
   Twin Cities Metro

CITY           SKY/WX    TMP DP  RH WIND       PRES   REMARKS
TWIN CITIES    MOCLDY    25  22  88 SE6       29.69F WCI  18
ST PAUL        CLOUDY    23  19  85 SE6       29.72F WCI  16
CRYSTAL        CLOUDY    24  18  77 S6        29.67F WCI  17
BLAINE         CLOUDY    23  19  86 SE6       29.67F WCI  16
LAKEVILLE      CLOUDY    27  25  93 S6        29.68F WCI  20
EDEN PRAIRIE   CLOUDY    29  24  82 S9        29.67F WCI  20
SOUTH ST PAUL  CLOUDY    24  20  83 SE5       29.70F WCI  18
LAKE ELMO      CLOUDY    25  21  86 S6        29.70F WCI  18
$$
MNZ001>005-007-008-013>017-022>024-027-028-130500-
   Northwest Minnesota

CITY           SKY/WX    TMP DP  RH WIND       PRES   REMARKS
BEMIDJI        CLOUDY    18  15  91 SE7       29.50F WCI   8
HALLOCK        CLOUDY    28  27  93 S8        29.42F WCI  20
ROSEAU         CLOUDY    19  16  86 E9        29.47F WCI   9
WARROAD        CLOUDY    18  14  86 E9        29.49F WCI   6
THIEF RVR FALL CLOUDY    28  25  88 S9        29.43F WCI  19
CROOKSTON      CLOUDY    30  28  93 S13       29.44F WCI  20
FOSSTON        CLOUDY    28  25  86 S14       29.46F WCI  17
DETROIT LAKES  CLOUDY    28  27  93 S6        29.51F WCI  22
MOORHEAD       PTCLDY    30  27  86 CALM      29.49F
PARK RAPIDS    CLOUDY    20  16  84 SE10      29.51F WCI   9
MAHNOMEN       FAIR      31  26  84 S10       29.47F WCI  22
$$
MNZ006-009>011-018-025>026-130500-
   North Central Minnesota

CITY           SKY/WX    TMP DP  RH WIND       PRES   REMARKS
BAUDETTE       CLOUDY    15  13  91 SE10      29.51F WCI   2
FLAG ISLAND    LGT SNOW  14  10  85 SE9       29.50F WCI   2
INTL FALLS     CLOUDY    13   9  84 SE10      29.58F WCI   0
WASKISH        CLOUDY    18  16  93 SE9       29.51F WCI   6
BIG FORK       CLOUDY    16  12  86 SE8       29.57F WCI   5
LONGVILLE      CLOUDY    18  16  93 SE6       29.56F WCI   9
GRAND RAPIDS   CLOUDY    14  11  87 SE8       29.61F WCI   3
CRANE LAKE     LGT SNOW  12   9  85 SE3       29.65F
ORR            CLOUDY    12   7  79 SE7G16    29.57F WCI   2
COOK           CLOUDY    12  10  92 SE6       29.62F WCI   3
WALKER         CLOUDY    19  16  89 SE5       29.52F WCI  12
$$
MNZ012-019>021-037-130500-
   Northeast Minnesota

CITY           SKY/WX    TMP DP  RH WIND       PRES   REMARKS
DULUTH         FLURRIES  11   9  92 SE10      29.66F WCI  -3
ELY            LGT SNOW  12   9  85 SE7       29.65F WCI   2
HIBBING        CLOUDY    11   9  92 SE10      29.63F WCI  -3
EVELETH        FLURRIES  12   8  83 SE7       29.65F WCI   2
DULUTH HARBOR  CLOUDY    16  10  79 CALM      29.75F
TWO HARBORS    CLOUDY    18  12  79 SE5       29.69F WCI  11
SILVER BAY     LGT SNOW  16  14  93 SE6       29.71F WCI   7
GRAND MARAIS     N/A     18   8  65 SE6       29.80F WCI  10
G MARAIS ARPRT FLURRIES   7   1  78 E5        29.69F WCI  -2
$$
MNZ029>031-032-039>041-046>048-054>057-064-130500-
   West Central Minnesota

CITY           SKY/WX    TMP DP  RH WIND       PRES   REMARKS
FERGUS FALLS   CLOUDY    30  27  86 S9        29.55F WCI  22
WHEATON        CLOUDY    37  27  65 S3        29.55F
MORRIS         PTCLDY    28  25  86 S8        29.56F WCI  20
ALEXANDRIA     CLOUDY    32  27  81 S9        29.55F WCI  24
ELBOW LAKE     FAIR      29  26  90 S9        29.54F WCI  20
WADENA         CLOUDY    23  23 100 S6        29.53F WCI  16
GLENWOOD       CLOUDY    28  27  93 S8        29.57F WCI  20
APPLETON       MOCLDY    34  27  75 S3        29.57F
BENSON         MOCLDY    28  27  93 S5        29.59F WCI  23
ORTONVILLE     PTCLDY    36  27  69 SW8       29.56F
MADISON        PTCLDY    37  28  70 SW8       29.58F
WILLMAR        FAIR      30  27  86 CALM      29.61F
$$
MNZ033>034-036-042>043-049>051-058-059-130500-
   Central Minnesota

CITY           SKY/WX    TMP DP  RH WIND       PRES   REMARKS
ST CLOUD       CLOUDY    20  17  88 SE6       29.63F WCI  12
SAUK CENTRE    FAIR      22  21  95 SE6       29.58F WCI  15
PAYNESVILLE    MOCLDY    27  27  98 S5        29.61F WCI  22
AITKIN         CLOUDY    16  10  79 SE8       29.59F WCI   5
PINE RIVER     CLOUDY    18  16  93 SE10      29.59F WCI   6
BRAINERD       CLOUDY    20  15  81 S8        29.59F WCI  10
STAPLES        CLOUDY    19  18  93 SE6       29.55F WCI  11
LONG PRAIRIE   FAIR      23  21  93 SE6       29.59F WCI  16
LITTLE FALLS   CLOUDY    19  12  73 SE6       29.60F WCI  11
LITCHFIELD     CLOUDY    30  28  93 S3        29.63F
BUFFALO        CLOUDY    26  23  87 S3        29.66F
MAPLE LAKE     CLOUDY    26  24  93 S7        29.65F WCI  18
HUTCHINSON     CLOUDY    28  26  94 SE3       29.65F
$$
MNZ037-044-045-052-053-130500-
   East Central Minnesota

CITY           SKY/WX    TMP DP  RH WIND       PRES   REMARKS
PRINCETON      CLOUDY    19  16  86 E3        29.65F
MORA           CLOUDY    18  12  79 SE3       29.68F
CAMBRIDGE      CLOUDY    21  12  68 SE3       29.67F
RUSH CITY      CLOUDY    17  13  82 SE3       29.69F
MOOSE LAKE     CLOUDY    16  10  79 CALM      29.66F
HINCKLEY       CLOUDY    18  12  79 SE5       29.68F WCI  11
CLOQUET        FLURRIES  12   9  85 SE6       29.66F WCI   3
MCGREGOR       CLOUDY    16  12  86 SE8       29.64F WCI   5
$$
MNZ071>073-080-081-089-090-097-098-130500-
   Southwest Minnesota

CITY           SKY/WX    TMP DP  RH WIND       PRES   REMARKS
MONTEVIDEO     CLOUDY    32  28  86 SW8       29.58F WCI  25
GRANITE FALLS  CLOUDY    31  28  85 S10       29.61F WCI  23
CANBY          CLOUDY    41  28  59 SW5       29.58F
MARSHALL       CLOUDY    38  27  64 SW21      29.60F
REDWOOD FALLS  PTCLDY    30  25  81 S9        29.63F WCI  22
OLIVIA         CLOUDY    30  28  93 S9        29.61F WCI  22
PIPESTONE      CLOUDY    30  25  80 SW10      29.65F WCI  21
WINDOM         CLOUDY    30  18  59 SW13      29.67F WCI  20
WORTHINGTON    CLOUDY    32  25  75 SW17      29.68F WCI  21
JACKSON        CLOUDY    30  27  86 MISG      29.69F
SLAYTON        PTCLDY    33  27  77 SW16      29.66F WCI  22
$$
MNZ065>067-074>077-082>085-091>093-130500-
   South Central Minnesota

CITY           SKY/WX    TMP DP  RH WIND       PRES   REMARKS
MANKATO        CLOUDY    30  26  85 S8        29.70F WCI  22
NEW ULM        CLOUDY    30  25  80 S8        29.67F WCI  23
ST JAMES       CLOUDY    28  25  86 S10       29.69F WCI  19
FAIRMONT       CLOUDY    29  24  82 S13       29.71F WCI  19
GLENCOE        CLOUDY    30  27  91 S6        29.65F WCI  24
FARIBAULT      CLOUDY    28  25  86 S6        29.71F WCI  22
OWATONNA       CLEAR     28  25  86 S13       29.72F WCI  18
WASECA         CLEAR     30  25  80 S9        29.73F WCI  22
ALBERT LEA     PTCLDY    30  21  69 S7        29.73F WCI  23
$$
MNZ078>079-086>088-094>096-130500-
   Southeast Minnesota

CITY           SKY/WX    TMP DP  RH WIND       PRES   REMARKS
ROCHESTER      CLOUDY    27  22  81 S17       29.73F WCI  14
RED WING       CLOUDY    25  18  74 SE6       29.73F WCI  18
STANTON        CLOUDY    31  25  78 S10       29.69F WCI  22
DODGE CENTER   MOCLDY    27  21  80 S13       29.72F WCI  16
WINONA           N/A     25  18  74 SE7       29.80F WCI  17
AUSTIN         CLOUDY    27  21  80 S10       29.76F WCI  17
PRESTON        CLOUDY    26  19  73 S12       29.77F WCI  16
$$
ABBREVIATIONS USED IN REMARKS
   TC - TEMPERATURES IN CELSIUS
  WCI - WIND CHILL INDEX
   HX - HEAT INDEX
  VSB - VISIBILITY
$$




USA.gov is the U.S. government's official web portal to all federal, state and local government web resources and services.